Theta_e
303 303 303 302 301 302 299 293 284 295 298 287 284 281 285 291 288 290 288 287 285 282 282 282 281 281 287 292 290 286 290 287 281 285 291 293 292 288 288 281 280 283 280 275
299 300 301 300 300 300 295 289 288 295 295 281 282 285 287 288 287 287 286 285 286 284 280 277 278 282 289 290 289 288 290 285 279 280 286 289 288 290 291 288 286 279 278 275
300 300 300 300 301 301 295 288 282 288 290 287 285 284 284 284 288 287 287 285 285 282 277 280 277 282 287 290 289 293 293 285 280 276 279 283 282 286 289 288 282 278 276 275
300 300 301 302 302 301 293 287 284 289 283 284 285 286 285 283 282 286 287 285 284 282 275 278 278 282 285 288 291 290 291 284 285 284 284 282 280 282 284 281 282 278 276 275
301 301 301 302 302 300 290 286 285 287 285 287 286 286 283 282 282 284 282 283 284 284 282 281 279 282 284 285 289 288 291 284 285 281 285 283 278 280 282 282 280 279 278 275
301 302 302 302 301 298 291 290 290 289 284 284 284 284 283 283 286 287 286 286 285 283 284 286 288 288 288 288 285 285 286 286 284 279 284 283 276 278 280 280 281 282 276 278
301 301 301 301 300 299 294 292 289 286 281 283 283 285 285 284 285 284 286 287 285 287 290 290 289 287 286 287 287 288 285 284 285 281 283 273 280 285 283 280 281 281 280 280
300 300 300 301 300 300 294 292 290 287 281 284 285 285 284 285 286 285 286 287 288 290 288 286 284 284 285 286 288 288 288 285 283 279 277 279 281 281 281 281 278 282 282 281
299 299 300 301 301 300 294 292 292 290 285 284 287 284 285 282 282 283 285 288 290 289 285 284 280 278 281 281 283 289 287 287 284 281 277 274 278 282 286 286 276 282 281 281
299 299 300 300 301 300 295 293 293 291 285 287 288 284 284 285 284 282 283 285 286 287 283 281 280 280 284 279 278 279 281 281 279 280 277 277 281 283 287 277 278 282 281 280
299 299 300 301 300 300 295 293 294 291 286 287 291 290 286 285 284 280 283 283 284 283 280 281 280 281 283 282 282 281 278 278 277 279 276 274 283 285 280 282 284 283 282 280
299 300 300 301 301 300 297 291 294 293 289 288 291 292 293 292 289 286 286 285 285 285 282 282 283 282 282 282 276 285 279 281 279 279 277 282 283 282 284 286 284 283 282 281
299 300 301 301 301 300 296 291 291 291 289 289 290 289 292 294 294 293 286 286 289 287 288 285 284 282 284 280 280 282 284 285 280 280 281 281 282 282 283 284 284 283 282 281
300 300 301 301 300 299 296 291 291 291 289 285 288 295 292 295 295 294 292 291 289 288 288 286 284 284 286 284 284 283 284 284 281 280 282 281 281 282 282 282 282 280 280 280
300 301 301 300 299 298 295 293 293 293 290 284 287 291 294 294 295 292 292 290 288 286 285 284 284 286 286 286 284 281 284 282 280 279 284 283 281 282 282 281 279 279 278 277
300 300 300 299 297 294 292 286 293 294 291 288 283 289 292 293 293 291 290 289 287 287 286 285 285 286 286 282 281 284 286 287 288 284 286 284 283 282 282 280 279 279 278 277
300 299 298 298 298 295 288 287 292 296 292 287 284 285 291 293 292 289 287 288 286 287 286 285 285 286 286 281 280 284 286 286 285 285 283 280 281 279 280 280 280 279 277 277
299 298 298 298 297 296 292 295 298 295 288 287 282 283 286 291 285 285 286 286 286 285 285 286 286 286 285 282 282 284 286 285 284 285 285 284 281 280 279 279 278 276 275 275
298 297 295 291 288 288 292 298 295 294 289 281 281 281 279 288 285 285 285 285 282 284 283 284 285 282 281 284 283 284 285 284 283 282 281 280 279 278 277 277 277 276 275 275
295 290 285 280 287 296 295 290 285 285 287 286 280 282 283 285 283 282 282 281 281 280 282 284 282 282 283 285 286 286 286 285 283 280 278 278 278 277 277 277 277 277 276 275
287 284 283 289 294 292 287 280 279 282 280 283 282 283 282 286 282 281 282 281 280 277 281 281 279 279 282 284 285 286 286 285 284 284 283 282 281 279 278 277 276 276 275 273
288 289 293 293 288 285 280 279 281 280 279 282 281 282 285 284 286 284 281 279 279 276 281 280 276 280 281 284 285 286 285 283 283 283 281 281 280 280 278 277 275 274 273 270
292 288 285 282 282 276 274 274 277 278 280 281 282 281 284 283 284 279 281 276 276 280 279 275 279 279 281 282 283 284 284 283 281 280 280 279 278 278 277 274 273 271 269 267
281 277 276 275 274 276 276 279 279 280 280 281 281 282 283 281 280 276 276 276 278 273 272 274 280 280 280 280 281 281 280 279 278 277 277 275 274 271 270 269 269 267 265 261
279 278 272 276 277 279 281 282 283 283 282 283 282 281 282 277 276 276 276 274 272 274 275 279 280 277 278 278 278 276 275 273 274 274 272 270 268 268 265 265 266 266 262 261
279 278 277 280 280 281 283 284 284 283 282 282 283 278 276 276 276 275 274 274 272 276 278 279 277 276 277 276 276 275 273 273 272 271 271 269 267 267 267 263 264 263 263 262
278 277 280 280 279 280 284 285 285 283 283 278 279 274 275 279 275 274 276 274 278 279 279 282 277 276 275 274 273 271 271 271 270 269 269 268 267 266 266 266 265 264 265 263
Wind_Speed
30 31 33 36 35 31 16 4 6 3 4 3 1 4 7 6 6 4 4 4 4 4 5 3 3 3 4 3 1 4 1 4 6 12 16 3 2 4 9 4 3 1 1 4
30 25 28 32 32 16 4 5 5 2 1 4 3 2 3 5 4 4 4 3 3 3 5 3 3 4 5 4 1 1 3 2 6 8 3 5 4 2 4 7 1 2 2 4
28 30 30 30 27 8 3 5 6 2 1 1 6 7 5 6 4 4 5 5 5 4 2 1 3 3 3 3 3 5 4 1 1 3 4 9 8 10 6 3 2 6 4 5
24 24 24 23 17 6 2 3 3 5 5 3 5 5 4 11 6 3 3 3 4 5 3 2 3 4 4 2 0 2 1 2 4 8 11 16 15 17 12 7 4 4 6 6
20 20 16 12 9 6 2 5 6 3 4 7 10 3 4 6 4 5 2 5 6 5 4 4 3 4 3 2 3 3 2 2 2 2 5 9 16 17 9 13 15 13 11 8
17 16 13 9 7 3 2 1 1 5 2 3 5 3 5 6 8 4 5 6 4 3 4 5 7 6 4 4 3 4 2 3 2 0 5 4 5 10 12 14 14 5 5 5
14 12 10 7 5 2 1 1 2 5 3 4 4 7 7 9 4 7 4 4 3 2 3 2 3 2 5 6 8 7 4 3 3 2 4 3 3 4 11 15 11 9 9 7
12 8 7 5 2 6 3 1 2 4 4 6 8 11 8 7 5 4 4 1 2 2 2 2 4 1 2 3 5 2 7 3 1 2 3 4 5 4 3 4 7 9 4 8
10 7 5 5 6 7 3 3 2 4 8 1 5 6 4 5 4 2 2 3 2 2 2 2 2 2 2 2 1 5 3 4 2 3 3 4 4 6 5 5 4 7 4 1
9 6 4 5 6 8 3 3 3 4 6 1 2 4 4 4 4 3 1 2 2 1 2 2 1 3 0 2 2 3 3 3 5 3 3 3 6 9 3 3 3 6 6 7
10 7 6 6 6 5 4 1 3 3 4 2 2 3 5 3 2 4 3 2 2 2 3 2 2 2 2 2 2 2 1 1 2 1 1 3 9 1 1 6 8 7 7 9
10 8 7 7 4 7 3 4 3 3 7 4 2 3 3 3 6 6 2 3 3 2 3 1 3 2 1 3 2 2 1 2 2 2 3 3 4 8 6 5 9 6 8 8
10 8 8 6 6 8 4 3 2 4 4 4 4 4 4 3 4 2 5 0 3 3 1 3 2 3 2 2 1 3 2 1 3 4 4 5 6 7 6 7 10 10 10 9
10 10 10 8 8 7 7 4 2 3 4 5 1 1 3 1 3 5 4 6 4 4 1 2 2 2 1 2 2 1 1 1 5 4 8 6 3 6 9 11 12 13 11 10
12 12 12 11 12 17 10 4 3 2 4 5 3 0 5 3 5 8 5 5 4 2 2 2 1 2 2 2 2 1 2 4 3 3 9 3 5 8 8 10 9 9 11 11
12 14 14 13 8 4 3 5 3 4 3 5 3 2 1 3 6 8 6 4 3 2 2 2 1 0 1 2 2 3 3 1 0 2 6 5 11 8 5 9 8 9 10 10
17 17 13 10 10 5 5 2 1 4 2 4 4 3 2 2 3 3 3 3 2 2 1 1 1 1 2 2 2 8 5 6 9 12 13 8 9 5 7 11 11 12 11 9
19 17 17 15 14 8 5 3 3 2 4 4 4 2 2 4 2 2 2 2 2 4 1 1 1 1 0 3 4 9 9 11 11 5 2 8 11 13 11 10 11 10 8 8
18 15 10 5 6 3 1 1 5 2 4 4 2 4 3 2 2 1 2 2 2 2 0 1 1 1 4 3 14 13 14 10 11 8 10 12 14 13 12 11 9 9 8 7
13 6 5 3 1 1 3 5 4 5 3 3 3 1 4 3 0 2 1 2 1 1 1 1 1 3 1 2 10 12 12 13 15 13 9 10 11 12 13 11 8 7 8 8
3 3 2 1 2 2 3 2 3 0 2 1 2 1 4 1 3 3 0 2 0 1 1 1 1 3 3 5 9 10 11 13 12 5 8 10 12 13 12 10 9 9 9 8
4 5 4 2 2 2 3 1 1 1 3 2 4 2 2 2 1 3 1 2 1 2 1 1 3 4 2 5 9 11 11 11 9 7 10 10 11 11 11 10 9 9 8 7
2 4 3 2 1 3 4 6 3 3 4 4 4 3 2 2 3 3 2 2 2 0 1 3 5 1 3 6 7 9 8 10 9 9 9 10 11 10 10 10 8 10 8 7
4 3 5 2 1 2 3 1 2 1 3 5 3 4 2 1 4 1 4 0 0 2 1 5 2 3 5 7 6 8 8 8 9 9 9 9 9 7 6 7 8 9 8 6
3 3 3 1 2 0 1 1 2 2 3 3 3 4 3 2 4 1 3 2 2 4 4 3 2 2 6 7 5 7 7 7 7 7 8 8 8 8 7 5 6 7 7 7
3 4 2 0 1 1 1 1 2 2 3 2 3 4 4 2 3 2 3 5 5 3 3 1 3 3 5 6 5 6 6 7 7 7 8 8 9 9 10 7 6 5 7 7
3 2 1 1 2 1 2 2 2 2 1 3 3 4 3 3 2 1 3 4 3 3 1 1 2 4 6 5 6 6 7 8 8 7 7 7 7 9 9 9 6 6 6 5
Wind_Direction
102 118 128 127 128 134 125 121 124 159 150 127 145 179 160 118 116 99 101 99 101 132 160 163 139 213 236 216 5 318 263 282 278 278 300 230 208 236 209 238 214 167 69 86
114 112 122 128 138 148 128 99 92 76 131 145 168 233 106 97 127 125 128 116 98 95 167 119 197 221 256 255 328 281 328 7 301 332 25 38 315 229 236 248 186 99 281 92
135 137 139 147 165 149 78 115 120 117 153 233 144 140 115 111 77 87 96 110 94 116 108 349 147 256 278 3 224 285 185 175 189 55 352 330 299 255 280 178 195 113 52 82
140 142 148 153 174 194 85 53 139 171 169 199 138 101 114 132 123 80 112 74 130 150 128 131 216 242 297 297 132 13 95 247 206 118 82 31 20 41 66 79 60 64 98 84
133 136 141 146 156 145 100 126 133 70 92 130 110 88 150 135 110 122 146 131 157 170 159 164 206 173 213 261 350 1 83 264 242 225 200 82 31 25 59 84 88 98 107 87
125 121 118 137 152 90 81 52 54 105 35 105 111 155 152 152 123 34 132 139 137 170 217 213 233 213 234 256 338 319 332 306 275 76 304 225 42 14 40 65 46 44 69 89
113 113 115 123 161 120 103 217 108 92 113 103 126 130 119 131 108 125 133 128 148 127 314 238 86 173 233 249 259 229 286 294 237 212 261 62 116 90 79 70 61 81 101 123
112 108 97 102 82 174 91 248 89 108 97 108 109 117 113 97 78 86 140 112 86 314 28 89 131 85 129 190 227 182 236 241 220 153 57 111 137 38 338 12 62 32 71 166
122 127 118 102 97 84 104 55 339 96 120 99 115 99 123 123 113 109 99 33 353 54 69 79 149 151 114 159 6 144 161 54 201 168 154 201 67 340 318 292 87 40 23 46
147 120 106 73 53 61 98 68 358 85 100 9 90 120 135 115 104 106 91 20 51 359 91 96 135 128 134 180 341 334 345 6 36 37 98 109 6 320 291 263 91 87 64 49
149 140 102 73 68 50 75 179 5 108 89 54 31 126 127 96 106 138 160 107 357 68 85 140 144 118 94 136 40 311 23 331 83 200 129 179 0 181 308 97 99 107 96 95
144 121 100 86 79 52 80 69 1 358 78 109 23 49 36 88 159 128 94 128 120 146 109 143 119 127 67 140 193 23 261 354 128 13 96 82 24 80 78 128 131 127 123 115
137 125 117 107 60 50 98 102 2 53 84 63 48 19 16 64 79 137 116 246 142 128 170 134 110 109 167 141 184 157 83 25 90 176 136 114 111 87 87 103 115 117 123 126
136 127 116 105 81 71 74 73 330 64 107 102 42 4 40 54 95 65 67 119 79 91 92 88 103 115 228 123 105 146 26 97 124 81 123 113 108 125 125 116 116 112 108 115
137 126 115 106 110 94 84 84 34 32 105 131 133 81 14 110 97 83 73 84 92 78 85 68 92 107 149 82 103 161 203 160 179 203 165 139 156 158 140 122 117 120 119 105
132 111 113 109 93 63 55 47 8 11 31 100 99 308 55 93 91 80 66 62 73 70 85 93 101 280 107 122 167 142 161 163 223 164 117 94 122 123 117 113 114 107 101 100
120 108 98 95 88 71 61 112 228 6 35 90 104 101 20 32 89 52 52 43 65 62 96 77 100 117 78 142 210 169 140 114 114 116 111 97 148 153 130 116 108 97 94 92
113 105 97 89 81 91 44 352 5 20 85 64 106 94 102 3 67 79 356 65 37 30 68 133 126 136 125 230 148 146 145 130 136 128 31 136 121 124 122 119 122 114 114 115
117 109 90 64 38 55 117 311 27 22 100 108 96 135 155 14 77 66 60 30 75 329 95 78 285 142 227 202 167 166 160 161 149 116 118 132 139 139 141 143 144 141 142 137
107 53 52 49 332 115 62 7 23 19 354 44 86 333 117 98 112 76 108 12 92 152 55 22 225 261 268 151 177 166 167 146 144 131 143 144 149 157 161 164 159 158 158 153
55 80 77 212 244 55 36 59 76 63 49 50 109 156 127 329 113 130 300 136 52 116 116 271 284 268 220 168 166 165 159 159 170 148 159 170 166 164 162 158 154 152 154 152
169 116 117 98 84 90 95 82 123 206 165 139 138 160 104 111 110 105 182 105 31 152 104 226 268 253 176 164 162 161 162 152 140 139 147 151 157 162 155 151 148 148 139 132
64 68 85 94 21 104 147 167 182 181 162 165 167 131 107 112 65 69 109 98 191 314 149 235 237 246 183 167 142 136 142 136 127 125 130 133 134 137 145 144 143 139 127 115
63 96 116 119 143 206 187 197 158 141 131 147 127 100 95 82 68 108 100 104 134 74 225 238 255 242 178 166 146 138 154 141 139 137 133 130 129 118 110 122 138 132 133 146
72 47 89 101 225 247 170 151 150 115 148 136 106 73 82 46 93 48 109 74 219 210 228 235 268 273 165 158 144 140 143 141 139 139 135 131 129 131 123 131 131 123 131 157
66 52 92 32 144 102 117 128 91 149 153 128 57 97 66 58 126 117 196 149 222 247 222 266 316 211 174 156 150 139 128 135 135 135 136 136 144 150 145 141 148 151 157 168
64 61 345 65 55 82 66 33 65 126 86 102 111 88 173 108 88 197 189 204 219 224 222 287 253 221 185 152 135 139 139 139 141 136 142 138 129 125 140 158 175 175 183 191